TimeCST,TemperatureF,Dew PointF,Humidity,Sea Level PressureIn,VisibilityMPH,Wind Direction,Wind SpeedMPH,Gust SpeedMPH,PrecipitationIn,Events,Conditions,WindDirDegrees,DateUTC
12:15 AM,26.6,22.8,86,30.21,10.0,NW,11.5,-,N/A,,Overcast,310,2013-12-30 06:15:00
12:35 AM,26.2,22.3,85,30.22,10.0,NW,12.7,-,N/A,,Overcast,310,2013-12-30 06:35:00
12:55 AM,26.2,22.6,86,30.23,10.0,NW,10.4,-,N/A,,Overcast,310,2013-12-30 06:55:00
1:15 AM,26.1,21.9,84,30.23,10.0,NW,10.4,-,N/A,,Overcast,310,2013-12-30 07:15:00
1:35 AM,25.5,21.2,84,30.23,10.0,WNW,13.8,18.4,N/A,,Overcast,300,2013-12-30 07:35:00
1:55 AM,25.2,21.0,84,30.24,10.0,NNW,9.2,-,N/A,,Overcast,330,2013-12-30 07:55:00
2:15 AM,25.0,21.2,86,30.25,10.0,WNW,11.5,-,N/A,,Overcast,300,2013-12-30 08:15:00
2:35 AM,24.3,20.1,84,30.26,10.0,NNW,8.1,-,N/A,,Overcast,330,2013-12-30 08:35:00
2:55 AM,23.9,19.6,84,30.27,10.0,NW,10.4,-,N/A,,Overcast,320,2013-12-30 08:55:00
3:15 AM,23.7,18.5,80,30.27,10.0,NNW,9.2,-,N/A,,Overcast,340,2013-12-30 09:15:00
3:35 AM,23.4,18.5,82,30.28,10.0,NNW,11.5,-,N/A,,Overcast,330,2013-12-30 09:35:00
3:55 AM,22.6,17.8,82,30.28,10.0,NW,9.2,-,N/A,,Overcast,310,2013-12-30 09:55:00
4:15 AM,22.1,17.1,81,30.29,10.0,WNW,11.5,-,N/A,,Overcast,300,2013-12-30 10:15:00
4:35 AM,21.0,16.7,83,30.29,10.0,NNW,9.2,-,N/A,,Overcast,330,2013-12-30 10:35:00
4:55 AM,20.3,16.0,83,30.29,10.0,NW,10.4,-,N/A,,Scattered Clouds,320,2013-12-30 10:55:00
5:15 AM,19.8,15.8,85,30.30,10.0,NNW,9.2,-,N/A,,Clear,330,2013-12-30 11:15:00
5:35 AM,19.4,15.4,85,30.30,10.0,NW,9.2,-,N/A,,Clear,320,2013-12-30 11:35:00
5:55 AM,18.7,14.4,83,30.31,10.0,NW,10.4,-,N/A,,Clear,320,2013-12-30 11:55:00
6:15 AM,18.5,13.5,81,30.31,10.0,NW,8.1,-,N/A,,Clear,310,2013-12-30 12:15:00
6:35 AM,18.1,14.2,84,30.31,10.0,NW,8.1,-,N/A,,Clear,310,2013-12-30 12:35:00
6:55 AM,18.0,14.0,84,30.32,10.0,NW,6.9,-,N/A,,Clear,320,2013-12-30 12:55:00
7:15 AM,18.0,14.4,86,30.32,10.0,NW,8.1,-,N/A,,Clear,320,2013-12-30 13:15:00
7:35 AM,17.8,14.2,86,30.32,10.0,NW,8.1,-,N/A,,Scattered Clouds,310,2013-12-30 13:35:00
7:55 AM,18.1,14.5,86,30.33,10.0,NW,6.9,-,N/A,,Mostly Cloudy,310,2013-12-30 13:55:00
8:15 AM,18.3,14.2,84,30.33,10.0,WNW,6.9,-,N/A,,Mostly Cloudy,300,2013-12-30 14:15:00
8:35 AM,18.5,14.7,85,30.34,10.0,NW,8.1,-,N/A,,Mostly Cloudy,320,2013-12-30 14:35:00
8:55 AM,18.9,14.7,84,30.34,10.0,NNW,6.9,-,N/A,,Mostly Cloudy,330,2013-12-30 14:55:00
9:15 AM,19.2,14.9,83,30.35,3.0,NW,8.1,-,N/A,Snow,Light Snow,310,2013-12-30 15:15:00
9:35 AM,19.6,14.9,82,30.35,10.0,NNW,6.9,-,N/A,,Scattered Clouds,340,2013-12-30 15:35:00
9:55 AM,20.3,14.9,80,30.35,10.0,NNW,8.1,-,N/A,,Scattered Clouds,330,2013-12-30 15:55:00
10:15 AM,20.8,14.5,77,30.35,10.0,NNW,6.9,-,N/A,,Scattered Clouds,330,2013-12-30 16:15:00
10:35 AM,21.6,14.5,74,30.35,10.0,WNW,5.8,-,N/A,,Scattered Clouds,300,2013-12-30 16:35:00
10:55 AM,22.1,14.9,74,30.34,10.0,NNE,4.6,-,N/A,,Clear,20,2013-12-30 16:55:00
11:15 AM,22.3,15.1,74,30.33,10.0,North,5.8,-,N/A,,Clear,10,2013-12-30 17:15:00
11:35 AM,22.6,14.0,69,30.32,10.0,NNW,4.6,-,N/A,,Clear,340,2013-12-30 17:35:00
11:55 AM,23.5,14.9,70,30.31,10.0,North,4.6,-,N/A,,Clear,360,2013-12-30 17:55:00
12:15 PM,24.3,14.5,67,30.30,10.0,NW,3.5,-,N/A,,Clear,310,2013-12-30 18:15:00
12:35 PM,24.3,14.2,65,30.29,10.0,NNW,3.5,-,N/A,,Clear,330,2013-12-30 18:35:00
12:55 PM,25.0,14.5,65,30.29,10.0,Calm,Calm,-,N/A,,Clear,0,2013-12-30 18:55:00
1:15 PM,26.1,14.9,63,30.28,10.0,Calm,Calm,-,N/A,,Clear,0,2013-12-30 19:15:00
1:35 PM,26.1,14.4,61,30.27,10.0,NNW,3.5,-,N/A,,Clear,330,2013-12-30 19:35:00
1:55 PM,26.1,14.5,62,30.27,10.0,Calm,Calm,-,N/A,,Clear,0,2013-12-30 19:55:00
2:15 PM,26.1,14.4,61,30.27,10.0,Calm,Calm,-,N/A,,Clear,0,2013-12-30 20:15:00
2:35 PM,25.9,14.2,61,30.26,10.0,Calm,Calm,-,N/A,,Clear,0,2013-12-30 20:35:00
2:55 PM,26.4,15.4,63,30.26,10.0,Calm,Calm,-,N/A,,Clear,0,2013-12-30 20:55:00
3:15 PM,26.6,15.1,62,30.26,10.0,WNW,3.5,-,N/A,,Clear,300,2013-12-30 21:15:00
3:35 PM,27.0,14.9,60,30.26,10.0,WNW,5.8,-,N/A,,Clear,290,2013-12-30 21:35:00
3:55 PM,26.6,13.5,58,30.26,10.0,WNW,3.5,-,N/A,,Clear,300,2013-12-30 21:55:00
4:15 PM,26.4,14.2,60,30.27,10.0,West,3.5,-,N/A,,Clear,280,2013-12-30 22:15:00
4:35 PM,26.2,15.3,63,30.27,10.0,WNW,3.5,-,N/A,,Mostly Cloudy,300,2013-12-30 22:35:00
4:55 PM,25.7,14.7,63,30.27,10.0,Calm,Calm,-,N/A,,Scattered Clouds,0,2013-12-30 22:55:00
5:20 PM,25.7,14.5,63,30.27,10.0,Calm,Calm,-,N/A,,Scattered Clouds,0,2013-12-30 23:20:00
5:35 PM,25.5,13.6,61,30.27,10.0,Calm,Calm,-,N/A,,Scattered Clouds,0,2013-12-30 23:35:00
5:55 PM,25.5,16.5,69,30.27,10.0,Calm,Calm,-,N/A,,Scattered Clouds,0,2013-12-30 23:55:00
6:15 PM,25.5,17.2,71,30.28,10.0,NW,3.5,-,N/A,,Scattered Clouds,310,2013-12-31 00:15:00
6:35 PM,24.8,17.2,73,30.28,10.0,NNW,3.5,-,N/A,,Clear,330,2013-12-31 00:35:00
6:55 PM,24.6,17.1,73,30.28,10.0,NNW,4.6,-,N/A,,Clear,330,2013-12-31 00:55:00
7:15 PM,25.2,15.8,68,30.28,10.0,Calm,Calm,-,N/A,,Clear,0,2013-12-31 01:15:00
7:35 PM,25.9,15.4,65,30.28,10.0,Calm,Calm,-,N/A,,Scattered Clouds,0,2013-12-31 01:35:00
7:55 PM,25.5,16.7,69,30.28,10.0,Calm,Calm,-,N/A,,Clear,0,2013-12-31 01:55:00
8:15 PM,24.6,17.6,75,30.28,10.0,ESE,3.5,-,N/A,,Clear,110,2013-12-31 02:15:00
8:35 PM,24.6,19.0,79,30.28,10.0,Calm,Calm,-,N/A,,Mostly Cloudy,0,2013-12-31 02:35:00
8:55 PM,25.3,18.0,74,30.28,10.0,Calm,Calm,-,N/A,,Overcast,0,2013-12-31 02:55:00
9:15 PM,25.7,17.6,71,30.28,10.0,Calm,Calm,-,N/A,,Overcast,0,2013-12-31 03:15:00
9:35 PM,26.1,19.4,76,30.27,10.0,SE,4.6,-,N/A,,Overcast,140,2013-12-31 03:35:00
9:55 PM,26.4,18.7,73,30.27,10.0,South,4.6,-,N/A,,Overcast,180,2013-12-31 03:55:00
10:15 PM,26.4,20.1,77,30.27,10.0,South,6.9,-,N/A,,Overcast,180,2013-12-31 04:15:00
10:35 PM,26.2,20.8,80,30.27,10.0,South,6.9,-,N/A,,Overcast,190,2013-12-31 04:35:00
10:55 PM,25.7,20.8,82,30.27,10.0,South,8.1,-,N/A,,Overcast,170,2013-12-31 04:55:00
11:15 PM,26.8,20.8,78,30.26,10.0,South,9.2,-,N/A,,Overcast,180,2013-12-31 05:15:00
11:35 PM,26.6,20.3,77,30.27,10.0,SSW,6.9,-,N/A,,Overcast,200,2013-12-31 05:35:00
11:55 PM,26.6,20.1,77,30.27,10.0,South,5.8,-,N/A,,Overcast,190,2013-12-31 05:55:00